This demonstration page uses our WeatherBlox Daily Observations layout. Learn more.

Left ArrowRight Arrow

34.74481, -87.66753

Hourly Observations for May 9, 2019

Temp ( °F °C ) Dew Point ( °F °C ) Humidity (%) Winds ( mph kmh ) Pressure ( in mb ) Visibility ( mi km ) Precip ( " mm )
12:53 am 00:53 Cloudy with Heavy Rain 70 21.1 65 18.3 84 84 WSW 9 15 29.96 1014 7 11 0.10 2.54
1:53 am 01:53 Cloudy 71 21.7 63 17.2 76 76 S 18 30 29.88 1012 10 16 0.01 0.25
2:53 am 02:53 Mostly Cloudy 70 21.1 62 16.7 76 76 S 17 28 29.86 1011 10 16 0.00 0.00
3:53 am 03:53 Clear 70 21.1 59 15 68 68 SSE 6 9 29.88 1012 10 16 0.00 0.00
4:53 am 04:53 Mostly Clear 69 20.6 59 15 70 70 SE 3 6 29.87 1011 10 16 0.00 0.00
5:53 am 05:53 Cloudy 67 19.4 60 15.6 79 79 ESE 3 6 29.89 1012 10 16 0.00 0.00
6:53 am 06:53 Cloudy 68 20 62 16.7 81 81 E 3 6 29.91 1013 10 16 0.00 0.00
7:53 am 07:53 Cloudy with Light Rain 68 20 62 16.7 81 81 NW 3 6 29.95 1014 10 16 0.00 0.03
8:02 am 08:02 Cloudy 69 20.6 62 16.7 78 78 NNW 3 6 29.96 1014 10 16 0.00 0.03
8:53 am 08:53 Cloudy 70 21.1 62 16.7 76 76 VRB 3 6 29.94 1014 10 16 0.00 0.03
9:53 am 09:53 Cloudy with Nearby Thunderstorms 68 20 64 17.8 87 87 NNE 10 17 29.92 1013 10 16 0.02 0.51
10:06 am 10:06 Cloudy with Strong Thunderstorms 67 19.4 64 17.8 91 91 NNW 7 11 29.97 1015 6 10 0.10 2.54
10:17 am 10:17 Cloudy with Strong Thunderstorms 66 18.9 64 17.8 93 93 NNW 7 11 29.96 1015 2 3 0.37 9.40
10:30 am 10:30 Cloudy with Strong Thunderstorms 66 18.9 64 17.8 93 93 N 7 11 29.96 1015 3 5 0.55 13.97
10:45 am 10:45 Cloudy with Nearby Thunderstorms 66 18.9 64 17.8 93 93 N 7 11 29.95 1014 3 5 0.74 18.80
10:50 am 10:50 Cloudy with Nearby Thunderstorms 66 19 64 18 94 94 WNW 12 19 29.99 1016 5 8 0.77 19.56
10:53 am 10:53 Cloudy with Nearby Thunderstorms 66 18.9 64 17.8 93 93 W 30 48 29.98 1015 4 6 0.87 22.10
10:57 am 10:57 Cloudy with Nearby Thunderstorms 64 17.8 62 16.7 93 93 WNW 25 41 29.99 1016 2 3 0.21 5.33
11:10 am 11:10 Cloudy with Heavy Rain 63 17.2 61 16.1 93 93 NW 15 24 30.00 1016 5 8 0.37 9.40
11:28 am 11:28 Cloudy with Nearby Thunderstorms 63 17.2 62 16.7 97 97 NW 9 15 30.00 1016 4 6 0.55 13.97
11:53 am 11:53 Cloudy with Rain 64 17.8 61 16.1 90 90 Calm 29.97 1015 10 16 0.61 15.49
12:16 pm 12:16 Mostly Cloudy with Thunderstorms 64 17.8 62 16.7 93 93 ESE 7 11 29.93 1014 10 16 0.01 0.25
12:31 pm 12:31 Mostly Cloudy with Light Rain 64 17.8 61 16.1 90 90 ESE 15 24 29.86 1011 10 16 0.02 0.51
12:53 pm 12:53 Mostly Cloudy 64 17.8 62 16.7 93 93 VRB 5 7 29.87 1011 10 16 0.02 0.51
1:42 pm 13:42 Mostly Cloudy 67 19.4 62 16.7 84 84 WNW 3 6 29.91 1013 10 16 0.00 0.00
1:53 pm 13:53 Mostly Cloudy 67 19.4 62 16.7 84 84 WNW 3 6 29.92 1013 10 16 0.00 0.00
2:34 pm 14:34 Cloudy 67 19.4 62 16.7 84 84 Calm 29.91 1013 10 16 0.00 0.00
2:51 pm 14:51 Partly Cloudy 66 19 63 17 88 88 Calm 29.91 1013 10 16 0.00 0.00
2:53 pm 14:53 Partly Cloudy 67 19.4 62 16.7 84 84 Calm 29.91 1013 10 16 0.00 0.00
3:53 pm 15:53 Cloudy 67 19.4 62 16.7 84 84 S 5 7 29.91 1013 10 16 0.00 0.00
4:42 pm 16:42 Cloudy 67 19.4 63 17.2 87 87 ESE 5 7 29.92 1013 10 16 0.00 0.00
4:53 pm 16:53 Cloudy 67 19.4 63 17.2 87 87 SE 6 9 29.92 1013 10 16 0.00 0.00
5:27 pm 17:27 Cloudy 67 19.4 63 17.2 87 87 SSE 6 9 29.93 1014 10 16 0.00 0.00
5:38 pm 17:38 Cloudy 68 20 63 17.2 84 84 SSE 5 7 29.93 1013 10 16 0.00 0.00
5:53 pm 17:53 Cloudy 67 19.4 63 17.2 87 87 SSE 6 9 29.93 1014 10 16 0.00 0.00
6:20 pm 18:20 Cloudy 67 19.4 63 17.2 87 87 SE 6 9 29.93 1014 10 16 0.00 0.00
6:35 pm 18:35 Cloudy 67 19.4 63 17.2 87 87 SSE 5 7 29.93 1014 10 16 0.00 0.00
6:53 pm 18:53 Cloudy 67 19.4 63 17.2 87 87 SSE 6 9 29.94 1014 10 16 0.00 0.00
7:53 pm 19:53 Cloudy 67 19.4 63 17.2 87 87 SSE 8 13 29.98 1015 10 16 0.00 0.00
8:19 pm 20:19 Cloudy 67 19.4 64 17.8 91 91 SSE 7 11 29.98 1015 10 16 0.00 0.00
8:40 pm 20:40 Cloudy 67 19.4 64 17.8 91 91 SSE 6 9 29.98 1015 10 16 0.00 0.00
8:53 pm 20:53 Cloudy 67 19.4 64 17.8 91 91 SSE 6 9 29.97 1015 10 16 0.00 0.00
9:19 pm 21:19 Partly Cloudy 66 18.9 63 17.2 90 90 SSE 3 6 29.99 1016 10 16 0.00 0.00
9:48 pm 21:48 Mostly Cloudy 64 18 63 17 94 94 Calm 30.00 1016 10 16 0.00 0.00
9:53 pm 21:53 Mostly Cloudy 66 18.9 63 17.2 90 90 Calm 29.99 1016 10 16 0.00 0.00
10:18 pm 22:18 Cloudy 66 18.9 64 17.8 93 93 Calm 30.00 1016 10 16 0.00 0.00
10:53 pm 22:53 Cloudy 66 18.9 64 17.8 93 93 Calm 29.99 1016 10 16 0.00 0.00
11:16 pm 23:16 Cloudy 67 19.4 63 17.2 87 87 SSW 6 9 30.00 1016 10 16 0.00 0.00
11:53 pm 23:53 Cloudy 67 19.4 63 17.2 87 87 S 5 7 29.99 1016 10 16 0.00 0.00

Powered by AerisWeather